This is the latest recevied weather packets stored in our database for station/object AA9VI-10. If no packets are shown the sender has not sent any weather packets the latest 10 day(s).
| Time | Temp. | Humidity | Pressure | Rain* | Wind** | Luminosity | Snow |
|---|---|---|---|---|---|---|---|
| 1777902016 | 15° C | 58% | 1003.4 hPa | 0 mm | - | - | - |
| 1777901416 | 14.44° C | 60% | 1003.5 hPa | 0 mm | - | - | - |
| 1777900817 | 13.89° C | 62% | 1003.5 hPa | 0 mm | - | - | - |
| 1777900216 | 13.33° C | 64% | 1003.7 hPa | 0 mm | - | - | - |
| 1777899616 | 12.78° C | 66% | 1003.8 hPa | 0 mm | - | - | - |
| 1777899016 | 12.22° C | 69% | 1003.8 hPa | 0 mm | - | - | - |
| 1777898416 | 11.67° C | 70% | 1003.6 hPa | 0 mm | - | - | - |
| 1777897816 | 11.11° C | 71% | 1003.6 hPa | 0 mm | - | - | - |
| 1777897216 | 10.56° C | 72% | 1003.7 hPa | 0 mm | - | - | - |
| 1777896616 | 10° C | 73% | 1003.6 hPa | 0 mm | - | - | - |
| 1777896017 | 10° C | 75% | 1003.8 hPa | 0 mm | - | - | - |
| 1777895416 | 9.44° C | 75% | 1003.7 hPa | 0 mm | - | - | - |
| 1777894816 | 8.89° C | 76% | 1003.8 hPa | 0 mm | - | - | - |
| 1777894216 | 8.89° C | 76% | 1003.7 hPa | 0 mm | - | - | - |
| 1777893616 | 8.89° C | 76% | 1003.7 hPa | 0 mm | - | - | - |
| 1777893016 | 8.89° C | 76% | 1003.7 hPa | 0 mm | - | - | - |
| 1777892416 | 8.89° C | 76% | 1003.7 hPa | 0 mm | - | - | - |
| 1777891816 | 8.89° C | 75% | 1003.8 hPa | 0 mm | - | - | - |
| 1777891217 | 8.89° C | 75% | 1003.8 hPa | 0 mm | - | - | - |
| 1777890617 | 8.89° C | 75% | 1003.9 hPa | 0 mm | - | - | - |
| 1777890017 | 8.89° C | 75% | 1003.7 hPa | 0 mm | - | - | - |
| 1777889417 | 8.89° C | 75% | 1003.8 hPa | 0 mm | - | - | - |
| 1777888817 | 9.44° C | 74% | 1003.8 hPa | 0 mm | - | - | - |
| 1777888216 | 9.44° C | 74% | 1003.8 hPa | 0 mm | - | - | - |
| 1777887616 | 9.44° C | 74% | 1003.8 hPa | 0 mm | - | - | - |
* Rain latest hour (hover to see other rain measurements)
** Current wind speed in m/s (hover to see current wind gust speed)